Time,TemperatureF,DewpointF,PressureIn,WindDirection,WindDirectionDegrees,WindSpeedMPH,WindSpeedGustMPH,Humidity,HourlyPrecipIn,Conditions,Clouds,dailyrainin,SoftwareType,DateUTC
2013-01-29 00:12:00,34.0,30.0,29.97,East,86,0.0,3.0,85,0.00,,,0.00,weatherlink.com 1.10,2013-01-29 05:12:00,
2013-01-29 00:27:00,33.9,30.0,29.97,ENE,72,0.0,0.0,85,0.00,,,0.00,weatherlink.com 1.10,2013-01-29 05:27:00,
2013-01-29 00:42:00,33.9,30.0,29.95,ESE,111,0.0,4.0,84,0.00,,,0.00,weatherlink.com 1.10,2013-01-29 05:42:00,
2013-01-29 00:58:00,34.1,30.0,29.94,East,79,0.0,5.0,84,0.00,,,0.00,weatherlink.com 1.10,2013-01-29 05:58:00,
2013-01-29 01:13:00,34.3,30.0,29.93,ENE,72,2.0,3.0,85,0.00,,,0.00,weatherlink.com 1.10,2013-01-29 06:13:00,
2013-01-29 01:28:00,34.5,30.0,29.93,ESE,107,0.0,4.0,84,0.00,,,0.00,weatherlink.com 1.10,2013-01-29 06:28:00,
2013-01-29 01:43:00,34.6,30.0,29.92,SSE,150,2.0,3.0,84,0.00,,,0.00,weatherlink.com 1.10,2013-01-29 06:43:00,
2013-01-29 01:58:00,34.7,30.0,29.91,ENE,75,0.0,3.0,84,0.00,,,0.00,weatherlink.com 1.10,2013-01-29 06:58:00,
2013-01-29 02:13:00,34.7,30.0,29.90,ENE,77,0.0,2.0,83,0.00,,,0.00,weatherlink.com 1.10,2013-01-29 07:13:00,
2013-01-29 02:28:00,34.8,30.0,29.90,East,96,0.0,3.0,82,0.00,,,0.00,weatherlink.com 1.10,2013-01-29 07:28:00,
2013-01-29 02:43:00,34.7,30.0,29.87,East,89,0.0,3.0,82,0.00,,,0.00,weatherlink.com 1.10,2013-01-29 07:43:00,
2013-01-29 02:58:00,34.8,30.0,29.88,SE,145,0.0,1.0,81,0.00,,,0.00,weatherlink.com 1.10,2013-01-29 07:58:00,
2013-01-29 03:13:00,34.9,30.0,29.89,SSE,160,0.0,0.0,81,0.02,,,0.02,weatherlink.com 1.10,2013-01-29 08:13:00,
2013-01-29 03:28:00,35.0,30.0,29.85,East,91,0.0,3.0,81,0.13,,,0.13,weatherlink.com 1.10,2013-01-29 08:28:00,
2013-01-29 03:43:00,35.5,30.0,29.84,ENE,72,0.0,1.0,81,0.13,,,0.13,weatherlink.com 1.10,2013-01-29 08:43:00,
2013-01-29 03:58:00,35.7,30.0,29.86,ESE,110,0.0,0.0,81,0.18,,,0.18,weatherlink.com 1.10,2013-01-29 08:58:00,
2013-01-29 04:13:00,35.6,30.0,29.82,East,86,0.0,5.0,81,0.22,,,0.25,weatherlink.com 1.10,2013-01-29 09:13:00,
2013-01-29 04:28:00,36.3,31.0,29.79,East,99,1.0,8.0,81,0.17,,,0.30,weatherlink.com 1.10,2013-01-29 09:28:00,
2013-01-29 04:43:00,37.1,32.0,29.78,East,84,0.0,4.0,81,0.17,,,0.30,weatherlink.com 1.10,2013-01-29 09:43:00,
2013-01-29 04:58:00,37.5,32.0,29.76,NNE,24,0.0,5.0,81,0.11,,,0.30,weatherlink.com 1.10,2013-01-29 09:58:00,
2013-01-29 05:13:00,37.3,32.0,29.77,ENE,70,0.0,0.0,81,0.05,,,0.30,weatherlink.com 1.10,2013-01-29 10:13:00,
2013-01-29 05:28:00,37.4,32.0,29.81,NNW,332,3.0,3.0,81,0.06,,,0.36,weatherlink.com 1.10,2013-01-29 10:28:00,
2013-01-29 05:43:00,37.6,32.0,29.77,NE,56,0.0,4.0,81,0.30,,,0.60,weatherlink.com 1.10,2013-01-29 10:43:00,
2013-01-29 05:58:00,37.8,32.0,29.75,East,98,0.0,4.0,81,0.37,,,0.67,weatherlink.com 1.10,2013-01-29 10:58:00,
2013-01-29 06:14:00,38.4,33.0,29.75,ENE,69,0.0,0.0,81,0.41,,,0.71,weatherlink.com 1.10,2013-01-29 11:14:00,
2013-01-29 06:28:00,38.6,33.0,29.74,NE,45,0.0,0.0,81,0.35,,,0.71,weatherlink.com 1.10,2013-01-29 11:28:00,
2013-01-29 06:44:00,38.8,33.0,29.75,SSE,159,0.0,0.0,81,0.11,,,0.71,weatherlink.com 1.10,2013-01-29 11:44:00,
2013-01-29 06:58:00,39.6,34.0,29.74,NE,47,0.0,0.0,81,0.05,,,0.72,weatherlink.com 1.10,2013-01-29 11:58:00,
2013-01-29 07:13:00,39.6,34.0,29.73,East,79,0.0,0.0,81,0.05,,,0.76,weatherlink.com 1.10,2013-01-29 12:13:00,
2013-01-29 07:28:00,40.3,35.0,29.73,ESE,115,0.0,0.0,82,0.07,,,0.78,weatherlink.com 1.10,2013-01-29 12:28:00,
2013-01-29 07:44:00,40.2,35.0,29.73,SSE,149,0.0,0.0,81,0.07,,,0.78,weatherlink.com 1.10,2013-01-29 12:44:00,
2013-01-29 07:59:00,39.9,35.0,29.73,East,98,0.0,0.0,81,0.06,,,0.78,weatherlink.com 1.10,2013-01-29 12:59:00,
2013-01-29 08:14:00,39.9,35.0,29.72,SW,222,0.0,0.0,81,0.02,,,0.78,weatherlink.com 1.10,2013-01-29 13:14:00,
2013-01-29 08:29:00,40.0,35.0,29.72,SW,214,0.0,0.0,81,0.00,,,0.78,weatherlink.com 1.10,2013-01-29 13:29:00,
2013-01-29 08:44:00,40.0,35.0,29.72,SSW,213,0.0,0.0,81,0.00,,,0.78,weatherlink.com 1.10,2013-01-29 13:44:00,
2013-01-29 08:59:00,40.0,35.0,29.72,SW,214,0.0,0.0,81,0.00,,,0.78,weatherlink.com 1.10,2013-01-29 13:59:00,
2013-01-29 09:14:00,40.4,35.0,29.71,SSW,213,0.0,0.0,81,0.00,,,0.78,weatherlink.com 1.10,2013-01-29 14:14:00,
2013-01-29 09:29:00,40.3,35.0,29.71,North,350,0.0,0.0,81,0.00,,,0.78,weatherlink.com 1.10,2013-01-29 14:29:00,
2013-01-29 09:44:00,40.2,35.0,29.71,North,352,0.0,0.0,81,0.00,,,0.78,weatherlink.com 1.10,2013-01-29 14:44:00,
2013-01-29 09:59:00,41.0,36.0,29.71,ENE,66,0.0,0.0,82,0.05,,,0.83,weatherlink.com 1.10,2013-01-29 14:59:00,
2013-01-29 10:14:00,46.1,42.0,29.70,West,259,0.0,2.0,85,0.05,,,0.83,weatherlink.com 1.10,2013-01-29 15:14:00,
2013-01-29 10:29:00,51.0,47.0,29.70,South,191,0.0,8.0,86,0.05,,,0.83,weatherlink.com 1.10,2013-01-29 15:29:00,
2013-01-29 10:44:00,52.2,49.0,29.71,West,278,0.0,9.0,87,0.05,,,0.83,weatherlink.com 1.10,2013-01-29 15:44:00,
2013-01-29 10:59:00,52.6,49.0,29.71,North,349,0.0,7.0,87,0.01,,,0.84,weatherlink.com 1.10,2013-01-29 15:59:00,
2013-01-29 11:14:00,52.9,49.0,29.70,SW,226,3.0,7.0,87,0.01,,,0.84,weatherlink.com 1.10,2013-01-29 16:14:00,
2013-01-29 11:29:00,53.0,49.0,29.70,SW,227,3.0,8.0,87,0.01,,,0.84,weatherlink.com 1.10,2013-01-29 16:29:00,
2013-01-29 11:44:00,53.3,50.0,29.70,WSW,252,5.0,6.0,87,0.01,,,0.84,weatherlink.com 1.10,2013-01-29 16:44:00,
2013-01-29 11:59:00,53.4,50.0,29.69,SSE,163,4.0,7.0,87,0.00,,,0.84,weatherlink.com 1.10,2013-01-29 16:59:00,
2013-01-29 12:14:00,53.5,50.0,29.69,ESE,111,0.0,7.0,87,0.00,,,0.84,weatherlink.com 1.10,2013-01-29 17:14:00,
2013-01-29 12:29:00,53.6,50.0,29.68,WSW,252,0.0,9.0,86,0.01,,,0.85,weatherlink.com 1.10,2013-01-29 17:29:00,
2013-01-29 12:44:00,53.8,50.0,29.67,SSW,205,4.0,7.0,86,0.02,,,0.86,weatherlink.com 1.10,2013-01-29 17:44:00,
2013-01-29 12:59:00,54.1,50.0,29.66,SW,227,0.0,8.0,86,0.02,,,0.86,weatherlink.com 1.10,2013-01-29 17:59:00,
2013-01-29 13:15:00,54.5,50.0,29.65,SSW,208,0.0,8.0,85,0.02,,,0.86,weatherlink.com 1.10,2013-01-29 18:15:00,
2013-01-29 13:30:00,55.0,50.0,29.64,SSE,153,7.0,8.0,84,0.01,,,0.86,weatherlink.com 1.10,2013-01-29 18:30:00,
2013-01-29 13:44:00,55.0,50.0,29.64,East,101,3.0,7.0,83,0.00,,,0.86,weatherlink.com 1.10,2013-01-29 18:44:00,
2013-01-29 13:59:00,54.9,49.0,29.63,SW,233,2.0,9.0,81,0.00,,,0.86,weatherlink.com 1.10,2013-01-29 18:59:00,
2013-01-29 14:15:00,54.7,49.0,29.63,SSE,167,1.0,4.0,80,0.00,,,0.86,weatherlink.com 1.10,2013-01-29 19:15:00,
2013-01-29 14:30:00,54.7,48.0,29.62,SSE,158,0.0,8.0,79,0.01,,,0.87,weatherlink.com 1.10,2013-01-29 19:30:00,
2013-01-29 14:45:00,54.9,49.0,29.62,SW,232,6.0,8.0,79,0.01,,,0.87,weatherlink.com 1.10,2013-01-29 19:45:00,
2013-01-29 15:00:00,55.0,49.0,29.61,South,181,0.0,10.0,79,0.01,,,0.87,weatherlink.com 1.10,2013-01-29 20:00:00,
2013-01-29 15:15:00,54.9,49.0,29.61,SSE,153,1.0,6.0,79,0.01,,,0.87,weatherlink.com 1.10,2013-01-29 20:15:00,
2013-01-29 15:30:00,54.8,48.0,29.60,South,191,0.0,7.0,79,0.00,,,0.87,weatherlink.com 1.10,2013-01-29 20:30:00,
2013-01-29 15:45:00,54.7,48.0,29.60,SSE,153,0.0,5.0,79,0.00,,,0.87,weatherlink.com 1.10,2013-01-29 20:45:00,
2013-01-29 16:00:00,54.5,48.0,29.60,SW,231,6.0,8.0,79,0.00,,,0.87,weatherlink.com 1.10,2013-01-29 21:00:00,
2013-01-29 16:15:00,54.5,48.0,29.60,South,188,4.0,10.0,79,0.00,,,0.87,weatherlink.com 1.10,2013-01-29 21:15:00,
2013-01-29 16:30:00,54.6,48.0,29.59,SW,214,0.0,10.0,79,0.00,,,0.87,weatherlink.com 1.10,2013-01-29 21:30:00,
2013-01-29 16:45:00,54.6,48.0,29.59,NW,309,3.0,12.0,79,0.00,,,0.87,weatherlink.com 1.10,2013-01-29 21:45:00,
2013-01-29 17:00:00,54.7,48.0,29.58,SE,146,3.0,9.0,79,0.00,,,0.87,weatherlink.com 1.10,2013-01-29 22:00:00,
2013-01-29 17:15:00,54.7,48.0,29.58,SSE,162,0.0,8.0,79,0.01,,,0.88,weatherlink.com 1.10,2013-01-29 22:15:00,
2013-01-29 17:30:00,54.7,48.0,29.58,ESE,122,11.0,11.0,79,0.19,,,1.06,weatherlink.com 1.10,2013-01-29 22:30:00,
2013-01-29 17:45:00,54.8,48.0,29.57,SE,138,2.0,8.0,79,0.22,,,1.09,weatherlink.com 1.10,2013-01-29 22:45:00,
2013-01-29 18:00:00,54.8,48.0,29.57,SSW,195,3.0,8.0,79,0.22,,,1.09,weatherlink.com 1.10,2013-01-29 23:00:00,
2013-01-29 18:15:00,54.9,49.0,29.56,South,184,2.0,7.0,79,0.22,,,1.10,weatherlink.com 1.10,2013-01-29 23:15:00,
2013-01-29 18:30:00,54.9,48.0,29.56,SSE,166,7.0,7.0,78,0.24,,,1.30,weatherlink.com 1.10,2013-01-29 23:30:00,
2013-01-29 18:45:00,54.9,49.0,29.55,SSW,198,4.0,9.0,79,0.22,,,1.31,weatherlink.com 1.10,2013-01-29 23:45:00,
2013-01-29 19:00:00,54.9,48.0,29.52,South,183,6.0,9.0,78,0.22,,,1.31,weatherlink.com 1.10,2013-01-30 00:00:00,
2013-01-29 19:15:00,55.0,49.0,29.52,SE,146,5.0,11.0,79,0.21,,,1.31,weatherlink.com 1.10,2013-01-30 00:15:00,
2013-01-29 19:30:00,55.4,49.0,29.51,SW,217,0.0,14.0,79,0.01,,,1.31,weatherlink.com 1.10,2013-01-30 00:30:00,
2013-01-29 19:45:00,55.6,49.0,29.51,South,184,4.0,12.0,78,0.00,,,1.31,weatherlink.com 1.10,2013-01-30 00:45:00,
2013-01-29 20:00:00,55.8,49.0,29.49,SSE,148,2.0,13.0,77,0.00,,,1.31,weatherlink.com 1.10,2013-01-30 01:00:00,
2013-01-29 20:15:00,56.1,49.0,29.48,SSW,201,5.0,14.0,76,0.00,,,1.31,weatherlink.com 1.10,2013-01-30 01:15:00,
2013-01-29 20:30:00,56.3,48.0,29.46,South,174,1.0,14.0,75,0.00,,,1.31,weatherlink.com 1.10,2013-01-30 01:30:00,
2013-01-29 20:45:00,56.3,48.0,29.45,SE,131,0.0,10.0,75,0.03,,,1.34,weatherlink.com 1.10,2013-01-30 01:45:00,
2013-01-29 21:00:00,56.5,49.0,29.43,SE,135,4.0,15.0,75,0.03,,,1.34,weatherlink.com 1.10,2013-01-30 02:00:00,
2013-01-29 21:16:00,56.5,49.0,29.44,SSE,166,4.0,11.0,76,0.04,,,1.35,weatherlink.com 1.10,2013-01-30 02:16:00,
2013-01-29 21:30:00,56.3,48.0,29.44,SW,232,0.0,10.0,75,0.11,,,1.42,weatherlink.com 1.10,2013-01-30 02:30:00,
2013-01-29 21:45:00,56.1,48.0,29.43,South,170,0.0,7.0,75,0.10,,,1.44,weatherlink.com 1.10,2013-01-30 02:45:00,
2013-01-29 22:00:00,55.9,48.0,29.43,WSW,253,0.0,8.0,75,0.12,,,1.46,weatherlink.com 1.10,2013-01-30 03:00:00,
2013-01-29 22:16:00,55.5,48.0,29.42,East,98,0.0,2.0,75,0.14,,,1.49,weatherlink.com 1.10,2013-01-30 03:16:00,
2013-01-29 22:30:00,55.3,48.0,29.41,WSW,252,3.0,6.0,75,0.08,,,1.50,weatherlink.com 1.10,2013-01-30 03:30:00,
2013-01-29 22:45:00,54.6,48.0,29.40,SW,226,4.0,11.0,77,0.06,,,1.50,weatherlink.com 1.10,2013-01-30 03:45:00,
2013-01-29 23:01:00,53.0,46.0,29.39,SW,233,4.0,9.0,76,0.04,,,1.50,weatherlink.com 1.10,2013-01-30 04:01:00,
2013-01-29 23:16:00,52.0,45.0,29.38,NNW,341,2.0,6.0,76,0.01,,,1.50,weatherlink.com 1.10,2013-01-30 04:16:00,
2013-01-29 23:31:00,51.4,44.0,29.39,West,264,0.0,6.0,76,0.00,,,1.50,weatherlink.com 1.10,2013-01-30 04:31:00,
2013-01-29 23:46:00,51.1,44.0,29.40,West,270,4.0,6.0,76,0.00,,,1.50,weatherlink.com 1.10,2013-01-30 04:46:00,